Location: Rumah Geringgi
(3.1667°N, 113.1667°E)
Time: 20:32:26
(UTC+00:00)

Resurs 01 Rocket - Pass Details

Date: 03 August 2024
Orbit: 629 x 639 km, 97.8° (Epoch: 19 September)

Event Time Altitude Azimuth Distance (km) Brightness Sun altitude
Exits shadow 12:09:17 15° 35° (NE) 1,697 3.6 -21.7°
Drops below altitude 10° 12:10:19 10° 25° (NNE) 2,006 4.1 -22.0°
Sets 12:12:51 0° 11° (N) 2,914 5.1 -22.6°
